[Iaude] MPEC J263: 2024 JQ12 [a=1.29,e=0.21,i=0.5,H=28.5]

mpec at cfa.harvard.edu mpec at cfa.harvard.edu
Sat May 11 07:31:00 EDT 2024


M.P.E.C. 2024-J263                                 Issued 2024 May 11, 11:29 UT

     The Minor Planet Electronic Circulars contain information on unusual
         minor planets, routine data on comets and natural satellites,
         and occasional editorial announcements.  They are published
    on behalf of Division F of the International Astronomical Union by the
          Minor Planet Center, Smithsonian Astrophysical Observatory,
                          Cambridge, MA 02138, U.S.A.
			  
             Prepared using the Tamkin Foundation Computer Network

                              MPC at CFA.HARVARD.EDU
            URL https://www.minorplanetcenter.net/    ISSN 1523-6714

                                   2024 JQ12                                    


Observations:
     K24J12Q*1C2024 05 10.24765013 47 52.030-25 17 58.74         20.11GVEJ263G96
     K24J12Q 1C2024 05 10.25298413 47 59.478-25 18 46.84         20.03GVEJ263G96
     K24J12Q 1C2024 05 10.25832113 48 06.923-25 19 34.93         19.72GVEJ263G96
     K24J12Q 1C2024 05 10.26370513 48 14.486-25 20 22.27         19.92GVEJ263G96
     K24J12Q  C2024 05 10.28337013 48 39.830-25 23 21.04         19.9 GVEJ263H01
     K24J12Q KC2024 05 10.28615113 48 46.098-25 23 39.37         20.01GVEJ263I52
     K24J12Q  C2024 05 10.28621913 48 43.862-25 23 45.38         19.4 GVEJ263H01
     K24J12Q KC2024 05 10.28708813 48 47.408-25 23 47.80         19.67GVEJ263I52
     K24J12Q KC2024 05 10.28801813 48 48.733-25 23 55.75         19.63GVEJ263I52
     K24J12Q  C2024 05 10.29074513 48 50.296-25 24 24.14         19.9 GVEJ263H01
     K24J12Q  C2024 05 10.29426213 48 55.320-25 24 54.01         19.9 GVEJ263H01
     K24J12Q KC2024 05 10.31443313 49 26.320-25 27 40.60         19.95GVEJ263I52
     K24J12Q KC2024 05 10.31629413 49 28.990-25 27 56.10         19.85GVEJ263I52
     K24J12Q KC2024 05 10.31815613 49 31.660-25 28 11.10         20.06GVEJ263I52
     K24J12Q KC2024 05 10.37855313 51 50.107-25 24 03.06         20.1 GVEJ263474
     K24J12Q KC2024 05 10.38010513 51 52.426-25 24 18.79         19.5 GVEJ263474
     K24J12Q KC2024 05 10.38165713 51 54.751-25 24 33.44         20.0 GVEJ263474
     K24J12Q KC2024 05 10.38321113 51 57.077-25 24 48.53         19.9 GVEJ263474
     K24J12Q 0B2024 05 10.94535 14 07 57.314-26 52 02.35         20.1 VZEJ263M49
     K24J12Q 0B2024 05 10.94854 14 08 02.285-26 52 28.52         20.0 VZEJ263M49
     K24J12Q 0B2024 05 10.95171 14 08 07.188-26 52 55.06         19.4 VZEJ263M49
     K24J12Q KC2024 05 11.24230 14 17 30.89 -27 43 41.1          18.6 RVEJ263691
     K24J12Q KC2024 05 11.24413 14 17 33.80 -27 43 57.8          19.3 RVEJ263691
     K24J12Q KC2024 05 11.33043914 19 55.214-27 55 48.18         19.89GVEJ263I52
     K24J12Q KC2024 05 11.33472214 20 02.353-27 56 21.30         19.64GVEJ263I52
     K24J12Q KC2024 05 11.33526814 20 03.286-27 56 25.40         19.66GVEJ263I52
     K24J12Q KC2024 05 11.33581814 20 04.211-27 56 29.51         20.11GVEJ263I52

Observer details:
474 Mount John Observatory, Lake Tekapo.  Observers A. C. Gilmore, P. M.
    Kilmartin.  Measurer P. M. Kilmartin.  1.0-m f/7.7 Reflector + CCD.
691 Steward Observatory, Kitt Peak-Spacewatch.  Observer C. Lejoly.  0.9-m f/3
    reflector + CCD.
G96 Mt. Lemmon Survey.  Observer J. K. Hogan.  Measurers T. Beuden, V. F.
    Carvajal, D. Fay, J. B. Fazekas, D. C. Fuls, A. R. Gibbs, A. D. Grauer, H.
    Groeller, J. K. Hogan, R. A. Kowalski, S. M. Larson, G. J. Leonard, D.
    Rankin, R. L. Seaman, F. C. Shelly, K. W. Wierzchos.  1.5-m reflector +
    10K CCD.
H01 Magdalena Ridge Observatory, Socorro.  Observers W. H. Ryan, E. V. Ryan.
    Measurer W. H. Ryan.  2.4-m f/8.9 Ritchey-Chretien + CCD.
I52 Steward Observatory, Mt. Lemmon Station.  Observers H. Groeller, T.
    Beuden.  Measurers T. Beuden, V. F. Carvajal, D. Fay, J. B. Fazekas, D. C.
    Fuls, A. R. Gibbs, A. D. Grauer, H. Groeller, J. K. Hogan, R. A. Kowalski,
    S. M. Larson, G. J. Leonard, D. Rankin, R. L. Seaman, F. C. Shelly, K. W.
    Wierzchos.  1.0-m prime focus + CCD.
M49 IAS Remote Observatory, Hakos.  Observers D. Husar, M. Junius, T. Daiber,
    T. Steinbach, P. Ditz, R. Hellot, L. Demetz, A. Karakali.  Measurer D.
    Husar.  0.25-m f/4.5 reflector + CMO.

Orbital elements:
2024 JQ12                                                Earth MOID = 0.0119 AU
Epoch 2024 Mar. 31.0 TT = JDT 2460400.5                 Veres                   
M 332.11182              (2000.0)            P               Q                  
n   0.67315458     Peri.  340.44301     -0.63250216     +0.77451950             
a   1.2894154      Node   250.32123     -0.70953858     -0.58340726             
e   0.2071050      Incl.    0.47355     -0.31063809     -0.24444942             
P   1.46           H   28.50          G   0.15           U   6                  
Residuals in seconds of arc
240510 G96  0.2+  0.4+    240510 H01  0.1-  0.1-    240510 M49  0.3-  0.6+
240510 G96  0.0   0.2+    240510 H01  0.0   0.1-    240510 M49  0.1+  0.8+
240510 G96  0.3-  0.2-    240510 I52  0.1-  0.4-    240510 M49  0.0   0.3+
240510 G96  0.1-  0.4+    240510 I52  0.1-  0.3-    240511 691  0.6+  0.5+
240510 H01  0.2+  0.2-    240510 I52  0.2-  0.2+    240511 691  0.5-  0.3-
240510 I52  0.1+  0.2-    240510 474  0.3+  0.4+    240511 I52  0.1+  0.1+
240510 H01  0.0   0.1-    240510 474  0.0   0.3-    240511 I52  0.2-  0.1-
240510 I52  0.0   0.5-    240510 474  0.1-  0.1-    240511 I52  0.0   0.1-
240510 I52  0.1+  0.4-    240510 474  0.2-  0.2-    240511 I52  0.1+  0.0

Ephemeris:
2024 JQ12                a,e,i = 1.29, 0.21, 0                   q = 1.0224
Date    TT    R. A. (2000) Decl.     Delta      r    Elong.  Phase     V
2024 04 11    10 54 41.6 -00 22 37   0.05726 1.0486   143.3    34.8    23.8
...
2024 04 26    11 14 43.4 -04 48 15   0.03225 1.0292   134.9    43.9    22.8
...
2024 05 04    12 00 48.7 -12 16 10   0.02016 1.0239   140.1    39.2    21.6
...
2024 05 10    13 41 08.3 -24 31 24   0.01336 1.0222   158.6    21.2    20.2
2024 05 11    14 09 47.5 -26 59 10   0.01269 1.0221   163.0    16.8    20.0
2024 05 12    14 42 32.7 -29 14 18   0.01223 1.0221   166.5    13.3    19.8
...
2024 05 18    18 10 39.8 -30 28 30   0.01426 1.0231   144.3    35.2    20.8
...
2024 05 26    20 05 54.7 -21 16 41   0.02443 1.0275   125.8    53.1    22.4
...
2024 06 10    20 52 18.8 -14 54 37   0.04747 1.0451   127.9    50.1    23.8

M. P. C. Staff               (C) Copyright 2024 MPC           M.P.E.C. 2024-J263





More information about the Iaude mailing list